FW7177 Weather Reports


Display with metric or nautical units.
time (UTC)temp
F
wind
direction
speed
MPH
gust
MPH
rain 1hr
in
rain 24hr
in
rain mn
in
humidity
%
barometer
mb
20260506133057 55 0 0.0 0.0 0.00 0.00 0.00 91 1020.2
20260506131602 55 0 0.0 0.0 0.00 0.00 0.00 91 1020.1
20260506130140 55 0 0.0 0.0 0.00 0.00 0.00 91 1020.1
20260506124602 55 0 0.0 0.0 0.00 0.00 0.00 91 1020.1
20260506123057 55 0 0.0 0.0 0.00 0.00 0.00 91 1019.8
20260506121556 55 0 0.0 0.0 0.00 0.00 0.00 90 1020.0
20260506120108 55 0 0.0 0.0 0.00 0.00 0.00 90 1019.8
20260506114557 55 0 0.0 0.0 0.00 0.00 0.00 90 1019.7
20260506113059 55 0 0.0 0.0 0.00 0.00 0.00 90 1019.8
20260506111557 55 0 0.0 0.0 0.00 0.00 0.00 90 1019.6
20260506104600 55 0 0.0 0.0 0.00 0.00 0.00 89 1019.4
20260506103100 55 0 0.0 1.0 0.00 0.00 0.00 89 1019.2
20260506101617 55 0 0.0 0.0 0.00 0.00 0.00 89 1019.1
20260506100118 55 0 0.0 1.0 0.00 0.00 0.00 89 1019.0
20260506094559 55 0 0.0 1.0 0.00 0.00 0.00 89 1018.9
20260506093057 55 0 0.0 1.0 0.00 0.00 0.00 89 1018.9
20260506091557 55 65 0.0 1.0 0.00 0.00 0.00 89 1019.0
20260506090059 55 0 0.0 1.0 0.00 0.00 0.00 89 1019.0
20260506084621 55 74 0.0 1.0 0.00 0.00 0.00 89 1019.0
20260506083100 55 0 0.0 2.0 0.00 0.00 0.00 89 1019.2
20260506081603 55 0 0.0 1.0 0.00 0.00 0.00 89 1019.1
20260506073058 55 0 0.0 1.0 0.00 0.00 0.00 88 1018.8
20260506071601 55 0 0.0 2.0 0.00 0.00 0.00 88 1018.7
20260506061600 55 0 0.0 2.0 0.00 0.00 0.00 88 1018.3
20260506044704 56 0 0.0 1.0 0.00 0.00 0.00 86 1017.8
20260506043107 56 73 0.0 1.0 0.00 0.00 0.00 86 1017.5
20260506041603 57 93 0.0 2.0 0.00 0.00 0.00 85 1017.3
20260506040057 57 81 0.0 2.0 0.00 0.00 0.00 83 1017.1
20260506034626 58 108 0.0 2.0 0.00 0.00 0.00 82 1016.9
20260506033102 58 77 0.0 3.0 0.00 0.00 0.00 80 1016.6
20260506031605 59 0 0.0 2.0 0.00 0.00 0.00 79 1016.3
20260506030100 59 0 0.0 3.0 0.00 0.00 0.00 77 1015.9
20260506024556 60 0 0.0 3.0 0.00 0.00 0.00 76 1015.8
20260506023112 61 0 0.0 2.0 0.00 0.00 0.00 75 1015.8
20260506021559 62 267 0.0 2.0 0.00 0.00 0.00 74 1015.6
20260506020059 63 0 0.0 2.0 0.00 0.00 0.00 73 1015.6
20260506014601 64 0 0.0 5.0 0.00 0.00 0.00 72 1015.4
20260506013059 65 294 0.0 4.0 0.00 0.00 0.00 70 1015.4
20260506011617 67 254 0.0 3.0 0.00 0.00 0.00 67 1015.3
20260506010104 66 100 2.0 5.0 0.00 0.00 0.00 70 1015.1
20260506004626 64 250 2.0 4.0 0.00 0.00 0.00 72 1015.2
20260506003111 65 226 1.0 5.0 0.00 0.00 0.00 71 1015.2
20260506001558 66 229 0.0 7.0 0.00 0.00 0.00 72 1015.0
20260506000057 65 337 0.0 4.0 0.00 0.00 0.00 72 1014.9
20260505234637 65 265 0.0 4.0 0.00 0.00 0.00 72 1014.9
20260505233112 66 238 0.0 2.0 0.00 0.00 0.00 71 1015.0
20260505231600 67 54 0.0 4.0 0.00 0.00 0.00 70 1014.9
20260505230105 67 0 0.0 4.0 0.00 0.00 0.00 70 1015.0
20260505224558 67 0 0.0 4.0 0.00 0.00 0.00 69 1015.0
20260505223059 68 0 0.0 2.0 0.00 0.00 0.00 69 1015.0
20260505221557 68 265 1.0 3.0 0.00 0.00 0.00 68 1015.1
20260505220106 66 68 0.0 3.0 0.00 0.00 0.00 72 1015.2
20260505214605 66 269 0.0 3.0 0.00 0.00 0.00 71 1015.4
20260505213102 65 84 1.0 2.0 0.00 0.00 0.00 72 1015.5
20260505211602 65 0 0.0 3.0 0.00 0.00 0.00 73 1015.7
20260505210058 65 252 0.0 2.0 0.00 0.00 0.00 73 1015.7
20260505204608 64 0 0.0 3.0 0.00 0.00 0.00 72 1015.7
20260505203059 64 0 0.0 3.0 0.00 0.00 0.00 73 1015.6
20260505201559 65 0 0.0 3.0 0.00 0.00 0.00 72 1015.8
20260505200104 64 284 0.0 2.0 0.00 0.00 0.00 73 1015.7
20260505194558 64 246 0.0 3.0 0.00 0.00 0.00 74 1015.7
20260505193100 63 243 1.0 4.0 0.00 0.00 0.00 75 1015.7
20260505191601 63 265 0.0 3.0 0.00 0.00 0.00 74 1015.8
20260505190059 63 232 0.0 3.0 0.00 0.00 0.00 76 1015.7
20260505184608 64 255 0.0 1.0 0.00 0.00 0.00 74 1015.8
20260505183100 65 0 0.0 2.0 0.00 0.00 0.00 71 1015.8
20260505181601 63 0 1.0 3.0 0.00 0.00 0.00 74 1015.8
20260505180103 64 0 0.0 3.0 0.00 0.00 0.00 74 1015.7
20260505174613 63 269 0.0 2.0 0.00 0.00 0.00 76 1015.6
20260505173056 63 77 0.0 3.0 0.00 0.00 0.00 75 1015.4
20260505171600 60 261 0.0 2.0 0.00 0.00 0.00 81 1015.5
20260505170138 58 0 0.0 0.0 0.00 0.00 0.00 84 1015.5
20260505164559 58 0 0.0 0.0 0.00 0.00 0.00 86 1015.5
20260505163059 57 0 0.0 0.0 0.00 0.00 0.00 89 1015.4
20260505161604 56 0 0.0 1.0 0.00 0.00 0.00 94 1015.4
20260505153101 55 0 0.0 1.0 0.00 0.00 0.00 96 1015.2
20260505151558 55 0 0.0 1.0 0.00 0.00 0.00 97 1015.1